Location: Croissy-Beaubourg
(48.8283°N, 2.6696°E)
Time: 01:00:02
(UTC+00:00)

USA 215 - Pass Details

Date: 26 May 2022
Orbit: 1099 x 1108 km, 123.0° (Epoch: 10 June)

Event Time Altitude Azimuth Distance (km) Brightness Sun altitude
Rises 23:35:17 0° 55° (NE) 3,926 6.6 -19.9°
Reaches altitude 10° 23:37:46 10° 56° (NE) 2,968 5.9 -19.9°
Maximum altitude 23:44:21 88° 144° (SE) 1,111 3.2 -19.9°
Drops below altitude 10° 23:50:55 10° 237° (WSW) 2,963 5.2 -19.9°
Enters shadow 23:51:00 10° 237° (WSW) 2,993 5.2 -19.9°
